Location: Elliott Corner
(37.4627°N, 119.7746°W)
Time: 00:10:35
(UTC+00:00)

CZ-2C R/B - Pass Details

Date: 10 September 2024
Orbit: 664 x 778 km, 98.4° (Epoch: 13 October)

Event Time Altitude Azimuth Distance (km) Brightness Sun altitude
Rises 12:41:55 0° 356° (N) 3,160 5.8 -11.7°
Reaches altitude 10° 12:44:44 10° 341° (NNW) 2,212 4.8 -11.1°
Maximum altitude 12:48:13 20° 294° (WNW) 1,599 3.7 -10.4°
Enters shadow 12:50:55 13° 255° (WSW) 1,961 3.9 -9.9°
